Terug naar catalogus

STARLINK-31040

ActiefCommunicatieVLEO
NORAD 58722·PAYLOAD·🇺🇸 United States

Gelanceerd Jan 3, 2024 vanaf Vandenberg Space Force Base

Loading…

Volgende Passages (komende 24 uur)

TLE

VersSource: CelesTrak SupGP

Epoch: Sep 15, 2026, 02:59 UTC

1 58722C 24002T   26258.12479167 -.00024609  00000+0 -72720-3 0  2583
2 58722  53.1584  66.7240 0001066  97.3808 320.4981 15.34398606    18

Volg STARLINK-31040 in realtime met AllMySat

Download on the App Store